Weather in El Alto

Bolivia     16°31′51″S   68°11′37″W
temp.,
°C
wind,
m/s
gust,
m/s
humid.,
%
clouds,
%
prec.,
mm/h
press.,
hPa
HPBL,
m
17 september, fri
fri1723:00+8ene4563100 0.0 1021353
02:00+7e1273100 0.0 1021127
05:00+4se118716 0.0 102227
08:00+6ese117522 0.0 1023379
11:00+12sse324571 0.0 10191743
14:00+15se643386 0.2 10122438
17:00+8nnw5667100 4.1 1017474
20:00+9ne2362100 4.1 1019343
18 september, sat
sat1823:00+7se116874 0.0 1021160
02:00+6n117493 0.0 101910
05:00+4wsw11785 0.0 101910
08:00+7se01675 0.0 1020295
11:00+13s23355 0.0 10161691
14:00+17ene662228 0.0 10103166
17:00+14ne64304 0.0 10111410
20:00+8ne45587 0.0 1017323
19 september, sun
sun1923:00+6ne34648 0.0 1019129
02:00+5ene227544 0.0 101838
05:00+4ne11796 0.0 101914
08:00+6ene11645 0.0 1020458
11:00+11s133256 0.0 10162045
14:00+11nne334497 0.4 10141774
17:00+9ne6554100 1.3 1014880
20:00+7ne566599 1.6 1016432
20 september, mon
mon2023:00+6ne237298 0.0 1020162
02:00+6se227591 0.0 1018197
05:00+4ese118199 0.0 101935
08:00+6e127037 0.0 1020374
11:00+12ene234154 0.0 10161870
14:00+13ne864083 0.1 10131638
17:00+10ne665119 0.1 1013844
20:00+7ene686671 0.1 1017614
21 september, tue
tue2123:00+7e3465100 0.0 1020532
02:00+6nne1264100 0.0 1020238
05:00+5nw2373100 0.1 1021251
08:00+7ne3361100 0.2 1022701
11:00+11nne4442100 0.1 10201842
14:00+11nne444390 0.2 10161763
17:00+9ne435484 0.2 1015836
20:00+7ne346372 0.2 1019370